Home   Weather   Muttenz   Past weeks

Flag for Switzerland Past Weather in Muttenz, Basel-Land, Switzerland — Yesterday and Last 2 Weeks

Now
45 °F

Sunny.


Feels Like: 45 °F
Forecast: 41 / 59 °F
Wind: No wind

Location: Bale-Mulhouse

Current Time: Apr 24, 2017 at 9:48:39 am

Latest Report: Apr 24, 2017 at 9:00 am


Visibility: 10 mi

Pressure: 30.09 "Hg

Humidity: 61%

Dew Point: 32 °F

Location of MuttenzLocation

Past Weather in Muttenz — Graph

°F

Muttenz Temperature Yesterday

Maximum temperature yesterday: 57 °F (at 3:00 pm)
Minimum temperature yesterday: 41 °F (at 5:30 am)
Average temperature yesterday: 49 °F

High & Low Weather Summary for the Past Weeks

 TemperatureHumidityPressure
High77 °F (Apr 9, 4:30 pm)100% (Apr 17, 4:30 am)30.54 "Hg (Apr 17, 4:30 am)
Low25 °F (Apr 20, 7:00 am)19% (Apr 21, 6:00 pm)29.98 "Hg (Apr 13, 4:00 pm)
Average49 °F63%30.20 "Hg
* Reported Apr 9 8:00 am — Apr 24 8:30 am, Muttenz, Weather by CustomWeather, © 2017

Note: Actual official high and low records may vary slightly from our data, if they occured in-between our weather recording intervals... More about our weather records

Advertising

Muttenz Weather History for the Previous 24 Hours

Scroll right to see more
 ConditionsComfort  
Time TempWeatherWind HumidityBarometerVisibility
8:30 am
Mon, Apr 24
41 °FSunny.No wind70%30.09 "Hg10 mi
8:00 am37 °FSunny.No wind81%30.09 "Hg10 mi
7:30 am32 °FSunny.No wind87%30.09 "Hg10 mi
7:00 am30 °FSunny.2 mph86%30.09 "Hg10 mi
6:30 am30 °FSunny.1 mph86%30.09 "Hg10 mi
6:00 am30 °FClear.2 mph86%30.09 "Hg10 mi
5:30 am32 °FClear.2 mph87%30.09 "Hg10 mi
4:30 am32 °FClear.2 mph80%30.12 "Hg10 mi
4:00 am34 °FClear.No wind75%30.12 "Hg10 mi
3:30 am34 °FClear.No wind75%30.12 "Hg10 mi
3:00 am34 °FClear.2 mph75%30.12 "Hg10 mi
2:30 am34 °FClear.5 mph81%30.15 "Hg10 mi
2:00 am36 °FClear.5 mph75%30.15 "Hg10 mi
1:30 am34 °FClear.6 mph75%30.15 "Hg10 mi
1:00 am36 °FClear.7 mph70%30.15 "Hg10 mi
12:30 am37 °FClear.6 mph70%30.15 "Hg10 mi
12:00 am37 °FClear.8 mph70%30.15 "Hg10 mi
11:30 pm
Sun, Apr 23
41 °FClear.6 mph61%30.15 "Hg10 mi
10:30 pm43 °FClear.7 mph53%30.18 "Hg10 mi
10:00 pm45 °FClear.8 mph49%30.18 "Hg10 mi
9:30 pm46 °FClear.7 mph46%30.18 "Hg10 mi
9:00 pm48 °FClear.8 mph46%30.15 "Hg10 mi
8:30 pm50 °FPassing clouds.8 mph40%30.15 "HgN/A
8:00 pm52 °FSunny.9 mph38%30.15 "Hg10 mi
7:30 pm54 °FSunny.9 mph33%30.15 "Hg10 mi
7:00 pm55 °FSunny.10 mph31%30.15 "Hg10 mi
6:30 pm55 °FPassing clouds.12 mph33%30.15 "HgN/A
6:00 pm57 °FPassing clouds.12 mph33%30.15 "HgN/A
5:30 pm57 °FPassing clouds.9 mph31%30.15 "HgN/A
5:00 pm57 °FPassing clouds.10 mph33%30.15 "HgN/A
4:30 pm57 °FPassing clouds.12 mph33%30.18 "HgN/A
4:00 pm57 °FPassing clouds.9 mph33%30.18 "HgN/A
3:30 pm57 °FPassing clouds.9 mph36%30.18 "HgN/A
3:00 pm57 °FPassing clouds.8 mph33%30.21 "HgN/A
2:00 pm55 °FScattered clouds.9 mph41%30.21 "HgN/A
1:30 pm55 °FScattered clouds.8 mph41%30.21 "HgN/A
1:00 pm54 °FScattered clouds.8 mph44%30.24 "HgN/A
12:30 pm54 °FScattered clouds.8 mph41%30.24 "HgN/A
12:00 pm52 °FPartly sunny.9 mph47%30.24 "HgN/A
11:30 am52 °FPartly sunny.10 mph47%30.24 "HgN/A
11:00 am50 °FPartly sunny.12 mph50%30.24 "HgN/A
10:30 am48 °FScattered clouds.12 mph54%30.24 "HgN/A
9:30 am45 °FPartly sunny.9 mph81%30.24 "HgN/A
9:00 am43 °FPartly sunny.10 mph87%30.24 "HgN/A
Weather by CustomWeather, © 2017

See weather overviewHow to use our weather pages